Location: Zagreb
(45.8000°N, 16.0000°E)
Time: 12:20:46
(UTC+01:00)

Vanguard 1 Rocket - Pass Details

Date: 06 October 2020
Orbit: 656 x 4221 km, 34.3° (Epoch: 28 October)

Event Time Altitude Azimuth Distance (km) Brightness Sun altitude
Rises 00:27:43 0° 276° (W) 7,099 12.1 -49.2°
Reaches altitude 10° 00:34:09 10° 262° (W) 6,598 11.7 -49.3°
Enters shadow 00:41:41 18° 243° (WSW) 6,353 11.4 -49.4°
Maximum altitude 00:47:59 20° 225° (SW) 6,417 - -49.4°
Drops below altitude 10° 01:03:33 10° 188° (S) 7,346 - -49.2°
Sets 01:11:46 0° 173° (S) 8,099 - -49.0°
